Location: Goudie Road
(49.9333°N, 119.0750°W)
Time: 12:13:06
(UTC-07:00)

Daily predictions for brighter satellites

Satellite Brightness Start Highest point End
(mag) Time Altitude Azimuth Time Altitude Azimuth Time Altitude Azimuth
Meteor 1-27 Rocket 3.7 21:12:17 10° NNW 21:17:55 86° E 21:23:26 10° SSE
Sich 1 Rocket 3.7 21:14:12 10° S 21:18:44 70° E 21:23:19 10° NNE
Nadezhda 3 Rocket 4.1 21:12:26 10° N 21:18:49 77° E 21:25:12 10° SSE
Cosmos 1356 Rocket 4.3 21:15:17 10° SSW 21:19:28 56° WNW 21:23:45 10° N
COSMOS 2487 2.5 21:18:13 10° NNW 21:21:52 80° ENE 21:25:29 10° SSE
Cosmos 1782 Rocket 4.2 21:17:52 10° SSE 21:21:59 37° E 21:26:07 10° NNE
BREEZE-M DEB (TANK) 3.1 21:20:58 10° SW 21:23:35 51° SSE 21:29:54 10° ENE
Coronas F rocket 3.5 21:22:23 10° SW 21:24:45 29° WNW 21:27:09 10° N
OPS 6432 4.2 21:21:41 10° SW 21:24:55 89° NW 21:28:04 10° NE
NOSS 2-2 (C) 3.8 21:23:09 10° SW 21:27:25 83° NW 21:32:40 10° NE
Cosmos 1975 Rocket 3.1 21:28:07 10° N 21:32:26 65° ENE 21:36:45 10° SSE
Envisat 3.3 21:28:53 10° S 21:33:57 70° WSW 21:39:03 10° NNW
MetOp-B 4.2 21:29:00 10° SSE 21:34:20 76° ENE 21:39:42 10° NNW
Cosmos 1939 Rocket 3.6 21:32:11 10° S 21:35:59 51° W 21:39:51 10° NNW
DNEPR-1 R/B 4.0 21:32:20 10° NW 21:38:08 82° SW 21:42:50 10° SE
TIMED 4.5 21:34:41 10° SSW 21:39:02 74° ESE 21:43:26 10° NNE
Cosmos 614 Rocket 4.0 21:38:28 10° NNW 21:43:34 67° ENE 21:48:29 11° SSE
Cosmos 1378 Rocket 3.9 21:40:01 10° NNW 21:44:18 65° W 21:48:34 10° S
Cosmos 1420 Rocket 4.4 21:40:12 10° S 21:45:07 43° ESE 21:50:02 10° NE
Cosmos 2084 3.4 21:41:30 10° SSW 21:45:12 47° SE 21:48:54 10° NE
NOSS 2-2 (E) 4.5 21:41:21 10° WSW 21:45:41 60° NW 21:51:07 10° NE
Cosmos 1908 Rocket 3.7 21:42:18 10° SSW 21:46:43 80° W 21:51:12 10° N
Cosmos 2341 Rocket 4.0 21:42:31 10° S 21:48:48 77° E 21:55:05 10° NNE
deb Chang Zheng 4 3.8 21:44:52 10° NNE 21:49:17 81° WNW 21:53:44 10° SSW
ERS-1 Rocket 4.5 21:46:44 10° SSW 21:51:20 35° W 21:55:58 10° NNW
ARGOS 3.2 21:46:55 10° SSE 21:52:13 68° ENE 21:57:33 10° N
Cosmos 1140 Rocket 3.7 21:48:41 10° NNW 21:53:49 72° WSW 21:58:56 10° SSE
Cosmos 1242 Rocket 2.6 21:51:33 10° NNW 21:55:13 86° WSW 21:58:55 10° S
YAOGAN 6 2.7 21:53:25 10° S 21:56:55 75° W 22:00:28 10° NNW
H-2A R/B 2.7 21:53:53 12° SE 21:58:32 44° ENE 22:03:30 10° N
Timation 2 Rocket 4.0 21:52:35 10° NW 21:58:36 73° WSW 22:04:20 11° SSE
Cosmos 1408 2.8 21:55:28 10° SSW 21:59:07 74° W 22:02:46 10° N
CZ-4 SHROUD 3.7 21:56:18 10° S 21:59:21 56° WSW 22:02:25 10° NNW
USA 245 3.3 21:59:05 11° SSE 22:02:19 87° WSW 22:06:43 10° NNW
SL-8 Rocket 4.1 21:56:17 10° S 22:02:25 60° E 22:08:33 10° NNE
Cosmos 1452 Rocket 3.7 21:58:14 10° SSW 22:03:31 79° WNW 22:08:51 10° NNE
PSLV R/B 4.0 22:00:45 10° S 22:03:35 44° W 22:06:27 10° NNW
Cosmos 1825 2.6 22:00:33 10° SSW 22:04:20 65° WNW 22:08:10 10° N
CZ-4B R/B 3.6 22:00:46 10° NNE 22:05:41 55° E 22:10:26 10° S
NOSS 5 (C) 4.1 22:05:18 10° SW 22:08:31 88° SE 22:11:41 10° NE
Cosmos 1833 Rocket 2.7 22:05:12 10° NNW 22:10:51 75° ENE 22:15:24 16° SE
Cosmos 1184 Rocket 3.3 22:07:59 10° SSW 22:11:18 63° WNW 22:14:39 10° N
USA 234 4.3 22:06:33 10° ENE 22:11:25 22° SE 22:16:14 10° S
SPOT 1/Viking Rocket 3.7 22:08:44 10° S 22:13:55 74° WSW 22:19:11 10° NNW
Cosmos 2151 Rocket 4.0 22:10:45 13° SSE 22:14:34 48° E 22:18:57 10° NNE
H-2A R/B 3.9 22:12:14 10° SSW 22:15:51 26° W 22:19:26 10° NW
Cosmos 2278 Rocket 2.2 22:11:17 10° SSW 22:16:58 88° WNW 22:22:43 10° NNE
Landsat 7 3.9 22:15:00 16° SSE 22:18:47 70° ENE 22:23:33 10° N
Cosmos 1844 Rocket 3.8 22:14:25 10° SW 22:19:54 48° NW 22:25:22 10° NNE
Meteor 1-18 Rocket 4.4 22:15:30 10° N 22:21:25 73° ENE 22:26:12 16° SSE
BREEZE-M DEB 4.4 22:18:21 10° SW 22:22:00 45° SSE 22:23:51 17° E
Cosmos 1844 4.4 22:16:23 10° SW 22:22:06 60° WNW 22:27:53 10° NNE
SL-8 R/B 3.6 22:17:20 10° WSW 22:22:09 74° S 22:26:57 10° E
ISS -3.1 22:20:31 10° SW 22:23:38 44° SSE 22:26:46 10° ENE
Cosmos 1812 3.2 22:20:40 10° N 22:24:26 47° ENE 22:26:39 22° SE
IGS 5A 3.8 22:23:39 20° SE 22:26:19 51° ENE 22:30:23 10° N
Meteor 1-14 Rocket 4.2 22:24:37 10° S 22:30:17 82° E 22:35:53 10° NNE
SAR-Lupe-2 4.4 22:28:42 21° ESE 22:30:31 37° ENE 22:33:51 10° N
Cosmos 2082 Rocket 2.5 22:26:44 10° NNW 22:32:25 66° WSW 22:36:43 17° SSE
Cosmos 864 Rocket 4.5 22:27:08 11° S 22:32:56 69° E 22:39:06 10° NNE
Cosmos 1300 Rocket 4.4 22:32:04 21° SE 22:34:14 34° E 22:38:14 10° NNE
Terra 1.9 22:31:14 20° SSE 22:34:30 70° ENE 22:39:16 10° N
Okean 1 Rocket 4.0 22:35:20 22° SE 22:37:21 32° E 22:41:19 10° NNE
SL-08 RB Rocket 4.2 22:33:34 14° S 22:37:25 59° W 22:42:03 10° NNW
Okean 1-7 Rocket 4.0 22:37:50 10° N 22:42:14 48° ENE 22:44:34 25° SE
Cosmos 2366 rocket 4.0 22:36:38 10° S 22:42:55 85° E 22:49:19 10° N
Spot 4 3.9 22:42:41 23° SSE 22:45:43 69° ENE 22:50:34 10° N
Okean 2 Rocket 4.3 22:42:24 10° SW 22:46:34 40° WNW 22:50:46 10° N
Cosmos 2297 3.7 22:46:30 10° SSW 22:52:13 89° WNW 22:58:01 10° NNE
DMSP B5D2-2 4.1 22:47:41 10° NNE 22:52:52 60° ESE 22:56:18 21° S
AVUM R/B 4.0 22:52:04 10° NW 22:55:29 47° WSW 22:56:52 29° S
Lacrosse 5 3.3 22:56:43 19° ESE 22:56:43 19° ESE 22:59:28 10° E
Meteor 1-11 Rocket 4.5 22:54:40 23° SE 22:57:32 38° E 23:02:48 10° NNE
CZ-4C R/B 4.0 22:55:37 21° SSW 22:58:03 50° W 23:02:08 10° NNW
USA 229 DEB 4.2 22:52:50 10° NW 22:59:39 51° WSW 23:04:18 21° S
USA 229 4.2 22:52:55 10° NW 22:59:45 52° WSW 23:04:24 21° S
Spot 2 4.5 22:56:13 10° NNE 23:00:25 44° E 23:01:58 31° SSE
ASTEX 1 3.5 22:56:49 10° NNE 23:01:45 62° E 23:04:23 27° SSE
Gbstr 26 Del rocket 3.2 22:58:22 10° WNW 23:03:25 61° SSW 23:05:19 31° SE
Cosmos 1331 Rocket 4.0 23:02:16 23° S 23:05:23 58° ESE 23:10:28 10° NNE
Cosmos 1400 Rocket 3.7 23:11:14 30° ESE 23:12:06 33° E 23:15:50 10° NNE
Cosmos 1110 Rocket 3.9 23:08:24 19° SSW 23:12:09 74° ESE 23:17:22 10° NNE
Cosmos 1536 3.9 23:12:06 27° ESE 23:12:47 29° E 23:16:17 10° NNE
Cosmos 1000 Rocket 4.5 23:07:49 10° N 23:14:05 79° E 23:17:46 27° SSE
NOSS 8 (E) 4.4 23:13:00 27° SSW 23:14:46 69° SE 23:18:43 10° NE
CARTOSAT-1 4.3 23:12:58 22° SSW 23:15:23 46° W 23:19:34 10° NNW
Timation 1 Rocket 4.3 23:10:38 14° SSW 23:15:54 73° ESE 23:21:55 10° NE
NOSS 3-1 (A) 4.0 23:10:44 10° NW 23:18:08 83° NE 23:23:39 23° SE
H-2A R/B 4.5 23:21:17 10° NE 23:24:10 16° E 23:24:44 16° E
Meteor 1-19 Rocket 4.3 23:19:17 10° N 23:25:11 80° ENE 23:28:09 31° SSE
Cosmos 2369 Rocket 3.1 23:23:58 26° SE 23:25:12 28° ESE 23:29:56 10° NE
Cosmos 1356 3.6 23:28:08 49° SE 23:28:33 52° E 23:32:01 10° NNE
Okean 1 4.5 23:28:24 10° NNW 23:32:11 37° W 23:34:04 23° SW
Cosmos 1354 Rocket 4.0 23:27:01 10° NNW 23:32:19 80° ENE 23:34:39 34° SSE
Cosmos 1486 Rocket 4.3 23:28:05 10° NNW 23:33:20 59° WSW 23:35:47 31° S
Cosmos 1633 3.0 23:33:32 42° ESE 23:33:54 43° E 23:37:28 10° NNE
Cosmos 1892 Rocket 3.8 23:32:43 10° N 23:37:03 58° ENE 23:38:22 40° SE
H-2A R/B 3.4 23:34:32 16° SSW 23:38:03 33° W 23:42:49 10° NNW
ATLAS 2AS CENTAUR R/B 3.5 23:31:13 10° NW 23:39:18 59° NE 23:46:07 14° ESE
Cosmos 1689 Rocket 3.9 23:42:55 22° ENE 23:43:17 23° ENE 23:45:52 10° NNE
Cosmos 2084 Rocket 3.2 23:43:23 10° NW 23:47:17 78° NE 23:48:19 47° ESE
NOSS 3-1 (C) 4.1 23:40:54 10° NW 23:48:14 64° SW 23:52:32 30° SSE
Cosmos 1833 Rocket 4.5 23:50:08 10° NW 23:54:10 21° W 23:57:06 14° SW
